Dewpoint
68 69 71 72 72 71 71 71 70 70 70 69 68 68 68 68 67 67 67 67 67 66 65 65 65 65 65 65 65 65 66 67 67 66 66 66 66 65 66 67 66 65 68
69 70 71 71 71 71 71 71 71 70 69 68 68 67 67 67 66 67 66 65 64 63 62 62 62 62 62 63 65 65 65 65 65 66 66 65 64 64 64 68 67 66 67
68 70 70 71 71 71 71 71 71 68 69 68 68 67 66 66 66 65 64 63 62 61 60 60 60 60 60 61 62 62 63 64 64 65 65 63 61 63 63 67 67 68 66
69 69 70 71 71 71 71 71 69 68 68 68 67 66 66 66 64 63 63 63 61 59 59 58 58 58 59 60 60 60 61 62 63 64 62 63 63 64 63 65 66 65 66
68 69 70 70 70 71 70 70 70 70 69 68 66 65 66 64 63 62 62 63 60 58 58 59 58 58 59 60 60 60 60 61 60 59 61 63 63 64 66 64 64 65 66
67 68 69 69 70 70 70 70 70 70 69 68 67 66 65 63 62 61 61 61 59 59 60 60 60 59 60 62 61 60 60 61 58 54 58 61 62 65 65 63 64 65 65
68 69 68 68 69 70 70 69 69 69 68 67 67 66 64 63 62 61 61 60 60 59 60 60 60 61 62 63 61 61 61 61 56 53 57 61 58 62 64 64 63 65 65
67 68 69 69 69 69 69 69 68 68 68 67 67 66 64 64 63 61 61 60 60 60 60 60 61 61 62 63 62 61 60 58 55 59 58 61 62 64 64 64 65 66 65
67 67 68 67 68 68 67 67 66 67 67 67 66 66 65 64 64 63 62 61 61 61 62 62 63 63 62 62 62 61 58 58 47 56 59 61 64 64 61 63 65 66 66
64 64 63 64 65 63 64 65 65 65 65 65 65 65 64 63 63 63 62 62 63 62 62 62 63 63 63 62 61 60 56 52 45 47 54 57 62 63 61 61 62 64 65
61 61 60 61 61 60 61 63 65 65 65 64 64 63 62 60 60 60 62 62 63 63 63 63 62 62 60 58 59 59 53 47 44 45 47 57 60 62 61 61 63 63 63
58 58 59 59 59 60 61 62 61 62 62 62 62 61 61 60 60 60 61 62 60 57 58 57 57 55 53 52 53 54 49 48 46 45 45 56 59 59 57 59 62 62 62
55 56 58 59 59 59 59 61 60 61 61 61 60 60 60 60 59 59 56 53 52 53 51 51 50 50 50 51 51 51 50 50 48 47 46 53 54 56 57 57 60 60 60
53 54 57 57 57 58 58 60 59 60 60 60 60 60 59 56 54 51 52 51 51 51 50 50 50 49 47 47 47 47 48 48 49 48 48 53 55 56 56 56 56 59 60
52 53 55 57 56 56 57 58 58 59 60 60 60 57 56 53 52 51 51 49 49 49 48 47 47 45 45 45 45 45 46 47 48 48 48 51 53 54 55 56 57 57 57
53 54 56 57 57 55 55 57 57 58 58 59 55 54 54 52 51 49 46 46 47 46 46 46 44 43 42 43 42 43 45 45 45 46 47 47 51 52 53 55 56 57 58
54 55 57 58 56 56 54 56 58 54 56 53 53 53 53 51 46 44 44 45 45 45 44 44 43 42 41 41 40 42 44 44 44 45 47 47 48 49 50 51 51 53 55
56 58 59 60 58 58 56 56 52 54 52 51 50 48 47 46 45 45 44 44 45 44 43 43 42 41 40 40 41 42 42 43 43 45 45 46 46 43 43 45 46 47 48
59 58 59 59 57 58 57 53 50 49 49 46 45 45 45 45 45 43 44 44 45 42 42 41 40 41 39 41 42 42 42 41 43 41 43 44 44 42 40 42 43 43 44
58 59 59 59 58 56 53 51 51 47 46 46 45 48 42 44 44 44 43 42 42 40 41 41 40 41 41 42 42 41 41 41 42 40 40 40 41 41 40 40 39 40 41
57 58 58 59 57 48 50 48 48 46 48 51 44 43 43 42 41 40 40 41 42 41 41 42 41 41 42 42 40 39 40 40 39 38 39 40 38 39 40 38 37 40 36
56 56 54 53 50 47 49 50 49 50 48 43 41 41 40 40 40 40 40 40 41 41 40 41 40 40 40 41 39 38 34 36 37 35 38 37 37 37 37 36 37 39 38
44 43 43 44 44 47 48 47 45 45 44 41 39 38 39 40 40 40 40 41 41 41 40 40 39 38 38 39 39 38 33 32 34 35 34 36 36 36 37 36 37 38 38
41 41 42 42 43 44 43 42 42 42 43 42 39 38 38 39 40 40 40 41 40 39 39 39 40 38 38 36 38 39 37 36 32 29 34 34 35 35 36 37 37 38 39
41 42 42 43 43 43 44 44 43 42 41 39 38 37 39 40 40 40 39 38 37 38 37 37 37 36 37 36 35 36 35 36 35 34 29 30 32 33 36 37 38 38 38
42 43 43 44 44 44 43 42 42 40 38 37 37 38 40 39 40 38 38 38 37 37 36 36 36 36 36 36 35 35 35 34 33 33 31 30 32 35 35 38 37 38 38
Lifted_Index
-4 -4 -5 -5 -5 -5 -5 -5 -5 -5 -5 -4 -4 -3 -3 -3 -3 -3 -2 -2 -2 -1 -1 -1 -1 -1 -1 -1 -1 -2 -2 -2 -3 -3 -3 -4 -4 -4 -4 -4 -3 -3 -4
-4 -4 -5 -5 -5 -5 -5 -5 -5 -5 -5 -4 -3 -3 -3 -2 -2 -2 -2 -1 -1 -0 0 0 1 1 0 -0 -1 -1 -1 -2 -2 -2 -3 -3 -3 -3 -3 -3 -4 -4 -4
-4 -4 -5 -5 -6 -5 -5 -5 -5 -5 -4 -4 -3 -3 -2 -2 -2 -1 -1 0 1 1 2 2 2 2 2 1 1 0 -0 -1 -1 -2 -2 -2 -2 -3 -3 -3 -4 -4 -5
-4 -5 -5 -5 -6 -6 -6 -5 -5 -5 -4 -4 -3 -2 -2 -2 -1 -0 0 1 1 2 2 2 3 3 3 2 2 1 1 0 -0 -1 -1 -2 -2 -3 -3 -3 -4 -4 -5
-4 -5 -5 -5 -6 -6 -6 -5 -5 -5 -4 -3 -2 -2 -2 -1 -0 1 1 1 2 2 2 2 3 3 2 2 1 1 1 1 0 -1 -1 -2 -2 -2 -3 -3 -3 -3 -4
-4 -5 -5 -5 -5 -6 -5 -5 -5 -4 -3 -3 -2 -2 -1 -0 0 1 1 2 2 2 2 2 2 2 2 1 1 1 2 1 1 -0 -1 -1 -1 -2 -3 -2 -2 -2 -3
-5 -5 -5 -5 -5 -5 -5 -4 -4 -3 -3 -3 -2 -2 -1 -0 0 1 1 2 2 2 1 1 1 1 1 1 1 2 2 2 1 0 -0 -1 -1 -2 -2 -2 -2 -2 -2
-5 -5 -5 -5 -5 -5 -4 -4 -3 -2 -2 -2 -2 -2 -1 -1 0 1 1 1 1 1 1 1 1 1 1 1 2 3 3 3 3 2 0 -1 -1 -2 -2 -2 -3 -3 -2
-5 -5 -5 -4 -4 -3 -3 -2 -2 -2 -2 -2 -2 -2 -1 -1 -0 0 1 1 1 1 1 1 1 1 1 2 2 3 5 5 5 4 3 1 -1 -2 -1 -2 -2 -2 -2
-4 -4 -4 -3 -2 -1 -1 -1 -1 -1 -1 -1 -1 -1 -1 -0 -0 0 0 0 0 0 0 0 1 1 2 3 3 4 5 6 6 6 5 3 1 -1 -1 -1 -1 -2 -2
-3 -2 -2 -1 -0 0 0 -0 -0 -1 -1 -1 -1 -1 -1 -0 -0 0 0 0 0 1 1 1 2 2 3 4 4 4 5 5 6 6 6 4 2 0 0 0 -0 -1 -1
-0 0 1 1 1 1 1 1 0 -0 -0 -1 -1 -1 -1 -1 -1 -0 0 1 2 2 3 3 3 4 5 5 5 5 5 5 5 5 5 5 3 2 2 1 1 1 1
2 2 2 2 2 2 1 1 1 0 -1 -1 -2 -2 -2 -1 -1 0 2 3 3 4 4 5 5 6 6 6 5 5 5 5 5 4 4 5 4 4 3 3 2 2 2
2 2 2 2 1 1 1 1 0 -0 -1 -2 -2 -2 -1 -1 1 2 3 4 4 5 5 6 6 6 6 6 6 6 6 6 5 5 5 5 5 4 4 3 3 2 2
1 1 1 1 1 0 0 0 -0 -1 -2 -3 -2 -1 -0 1 2 3 4 4 5 5 6 6 6 6 6 6 6 7 8 8 8 7 6 6 5 5 5 4 4 3 3
-0 -0 0 0 0 0 0 -0 -1 -1 -2 -3 -2 -0 1 2 3 4 4 4 5 5 6 6 6 6 6 7 7 8 9 10 10 9 9 8 7 7 6 6 5 5 4
-1 -1 -1 -1 -0 -0 -0 -0 -1 -1 -2 -2 -1 1 2 3 3 3 3 3 4 5 5 6 6 7 7 8 8 9 9 10 10 10 10 10 9 9 8 8 8 7 6
-1 -1 -1 -1 -0 -0 -0 -0 -0 -1 -1 -1 -0 1 2 2 2 2 3 3 4 5 6 7 7 7 8 8 8 9 10 10 10 11 11 10 10 10 10 10 10 9 9
-1 -1 -1 -0 0 0 0 0 -0 0 0 0 1 1 2 2 2 3 3 4 5 6 7 7 8 8 8 9 9 10 10 10 10 11 11 11 11 11 11 11 11 11 10
-1 -1 -1 -0 0 0 -0 -0 0 1 1 1 2 2 2 3 3 4 4 5 6 6 7 7 8 8 9 10 10 11 11 11 11 11 11 12 12 12 13 13 13 12 12
-1 -1 -0 -0 0 -0 -0 0 0 1 2 2 2 3 3 4 4 4 5 6 6 6 7 8 9 9 10 11 11 11 11 11 11 11 11 12 12 13 13 14 14 14 14
-0 0 0 0 0 1 1 1 1 2 2 3 3 4 4 4 5 5 6 6 7 7 8 9 10 11 11 11 11 11 12 11 11 11 11 11 12 12 13 13 14 15 15
2 2 2 2 2 2 2 3 3 3 3 4 4 4 4 5 5 6 7 8 9 9 10 11 12 12 12 11 11 11 12 12 12 12 12 11 11 11 12 12 13 13 14
3 4 3 3 3 3 3 3 3 3 3 3 3 4 5 5 6 8 9 10 11 11 12 13 13 12 12 12 11 11 11 11 12 12 12 11 11 11 11 11 11 11 12
4 4 3 3 3 2 2 2 3 3 3 3 4 5 6 7 8 9 10 11 11 12 13 13 13 13 12 12 12 11 11 10 10 10 10 10 9 9 10 10 9 10 10
4 3 3 3 3 2 2 2 2 3 3 4 5 6 8 9 10 10 11 11 11 12 13 14 13 13 12 12 12 12 11 10 9 9 9 9 8 8 8 8 8 9 9